Port Heiden, AK

3:37 AM AKDT on July 26, 2017 (GMT -0800)
Port Heiden

Weather History for PAPH - June, 2013

Change the Weather History Date:

Wednesday, June 5, 2013

  Actual Average Record
Temperature  
Mean Temperature 44 °F -  
Max Temperature 55 °F 50 °F 64 °F (2005)
Min Temperature 33 °F 38 °F 30 °F (2006)
Degree Days  
Heating Degree Days 21    
Moisture  
Dew Point 34 °F    
Average Humidity 63    
Maximum Humidity 93    
Minimum Humidity 32    
Precipitation  
Precipitation 0.00 in - - ()
Sea Level Pressure  
Sea Level Pressure 29.80 in    
Wind  
Wind Speed 8 mph (East)    
Max Wind Speed 23 mph    
Max Gust Speed 28 mph    
Visibility 8 miles    
Events      
Averages and records for this station are not official NWS values.
T = Trace of Precipitation, MM = Missing Value Source: NWS Daily Summary

Daily Weather History Graph

Daily Weather History Graph

Search for Another Location

Airport or City:

Trip Planner

Search our weather history database for the weather conditions in past years. The results will help you decide how hot, cold, wet, or windy it might be!

Date:

Astronomy

Jun. 05, 2013 Rise Set
Actual Time 5:45 AM AKDT 11:21 PM AKDT
Civil Twilight 4:41 AM AKDT 12:26 AM AKDT
Nautical Twilight 3:05 AM AKDT 2:00 AM AKDT
Astronomical Twilight Sun does not set Sun does not set
Moon 4:29 AM AKDT (6/5) 8:32 PM AKDT (6/5)
Length of Visible Light 19h 44m
Length of Day
17h 36m
Waning Crescent, 7% of the Moon is Illuminated
Jun 5
Waning Crescent
Jun 8
New
Jun 16
First Quarter
Jun 23
Full
Jun 29
Last Quarter

Hourly Weather History & Observations

Time (AKDT) Temp. Windchill Dew Point Humidity Pressure Visibility Wind Dir Wind Speed Gust Speed Precip Events Conditions
12:16 AM 41.0 °F - 35.6 °F 81% 29.81 in 8.0 mi Calm Calm - N/A   Partly Cloudy
12:36 AM 42.8 °F - 37.4 °F 81% 29.83 in 7.0 mi Calm Calm - N/A   Scattered Clouds
12:56 AM 39.2 °F 37.0 °F 33.8 °F 81% 29.83 in 1.5 mi North 3.5 mph - N/A   Overcast
1:16 AM 37.4 °F 32.1 °F 33.8 °F 87% 29.83 in 0.8 mi North 6.9 mph - N/A   Overcast
1:36 AM 37.4 °F 31.4 °F 32.0 °F 81% 29.83 in 0.5 mi North 8.1 mph - N/A   Mostly Cloudy
1:56 AM 37.4 °F 31.4 °F 30.2 °F 75% 29.82 in 0.5 mi North 8.1 mph - N/A   Overcast
2:16 AM 37.4 °F 32.1 °F 32.0 °F 81% 29.82 in 0.5 mi NNE 6.9 mph - N/A   Mostly Cloudy
2:36 AM 35.6 °F 28.6 °F 30.2 °F 81% 29.82 in 0.5 mi NNE 9.2 mph - N/A   Overcast
2:56 AM 37.4 °F 30.8 °F 33.8 °F 87% 29.81 in 1.5 mi NNE 9.2 mph - N/A   Scattered Clouds
3:16 AM 37.4 °F 32.1 °F 33.8 °F 87% 29.81 in 1.2 mi NE 6.9 mph - N/A   Clear
3:36 AM 37.4 °F 32.8 °F 32.0 °F 81% 29.81 in 10.0 mi ENE 5.8 mph - N/A   Clear
3:56 AM 37.4 °F 34.9 °F 30.2 °F 75% 29.81 in 10.0 mi East 3.5 mph - N/A   Clear
4:16 AM 37.4 °F 33.8 °F 33.8 °F 87% 29.81 in 10.0 mi SE 4.6 mph - N/A   Clear
4:36 AM 37.4 °F 33.8 °F 32.0 °F 81% 29.81 in 9.0 mi East 4.6 mph - N/A   Partly Cloudy
4:56 AM 35.6 °F 30.7 °F 30.2 °F 81% 29.81 in 8.0 mi SE 5.8 mph - N/A   Partly Cloudy
5:16 AM 33.8 °F - 30.2 °F 87% 29.81 in 0.2 mi Calm Calm - N/A   Overcast
5:36 AM 35.6 °F 32.8 °F 30.2 °F 81% 29.81 in 0.5 mi East 3.5 mph - N/A   Mostly Cloudy
5:56 AM 33.8 °F 29.6 °F 30.2 °F 87% 29.81 in 2.0 mi East 4.6 mph - N/A   Clear
6:16 AM 35.6 °F 32.8 °F 33.8 °F 93% 29.81 in 10.0 mi ENE 3.5 mph - N/A   Clear
6:36 AM 37.4 °F - 33.8 °F 87% 29.81 in 10.0 mi Calm Calm - N/A   Partly Cloudy
6:56 AM 37.4 °F 33.8 °F 32.0 °F 81% 29.81 in 10.0 mi East 4.6 mph - N/A   Mostly Cloudy
7:16 AM 39.2 °F 37.0 °F 35.6 °F 87% 29.81 in 10.0 mi NE 3.5 mph - N/A   Mostly Cloudy
7:36 AM 39.2 °F - 35.6 °F 87% 29.81 in 0.8 mi Calm Calm - N/A   Overcast
7:56 AM 42.8 °F 40.1 °F 37.4 °F 81% 29.81 in 10.0 mi North 4.6 mph - N/A   Overcast
8:16 AM 42.8 °F - 39.2 °F 87% 29.81 in 10.0 mi Calm Calm - N/A   Overcast
8:36 AM 44.6 °F - 37.4 °F 76% 29.81 in 10.0 mi Calm Calm - N/A   Overcast
8:56 AM 44.6 °F 42.2 °F 39.2 °F 81% 29.82 in 10.0 mi NNE 4.6 mph - N/A   Overcast
9:16 AM 46.4 °F 44.3 °F 39.2 °F 76% 29.81 in 10.0 mi NNE 4.6 mph - N/A   Overcast
9:36 AM 46.4 °F 44.3 °F 39.2 °F 76% 29.81 in 10.0 mi NE 4.6 mph - N/A   Overcast
9:56 AM 46.4 °F 44.3 °F 37.4 °F 71% 29.82 in 10.0 mi North 4.6 mph - N/A   Overcast
10:16 AM - - - N/A% - - North - - N/A   Unknown
10:36 AM 48.2 °F - 37.4 °F 66% 29.82 in 10.0 mi North 6.9 mph - N/A   Overcast
10:56 AM 50.0 °F - 37.4 °F 62% 29.83 in 10.0 mi NW 5.8 mph - N/A   Overcast
11:16 AM 51.8 °F - 37.4 °F 58% 29.83 in 10.0 mi WSW 4.6 mph - N/A   Overcast
11:36 AM 51.8 °F - 35.6 °F 54% 29.82 in 10.0 mi SSE 11.5 mph 17.3 mph N/A   Overcast
11:56 AM 53.6 °F - 33.8 °F 47% 29.82 in 10.0 mi SE 20.7 mph - N/A   Overcast
12:16 PM 53.6 °F - 35.6 °F 51% 29.82 in 10.0 mi SE 18.4 mph 26.5 mph N/A   Overcast
12:36 PM 53.6 °F - 35.6 °F 51% 29.82 in 10.0 mi SE 19.6 mph 26.5 mph N/A   Overcast
12:56 PM 55.4 °F - 35.6 °F 47% 29.81 in 10.0 mi SE 18.4 mph 23.0 mph N/A   Overcast
1:16 PM 53.6 °F - 35.6 °F 51% 29.81 in 10.0 mi SE 16.1 mph 25.3 mph N/A   Overcast
1:36 PM 53.6 °F - 35.6 °F 51% 29.81 in 10.0 mi SE 20.7 mph - N/A   Overcast
1:56 PM 53.6 °F - 35.6 °F 51% 29.81 in 10.0 mi SSE 19.6 mph 25.3 mph N/A   Overcast
2:16 PM 53.6 °F - 35.6 °F 51% 29.81 in 10.0 mi SE 18.4 mph 23.0 mph N/A   Overcast
2:36 PM 55.4 °F - 35.6 °F 47% 29.80 in 10.0 mi SSE 20.7 mph 27.6 mph N/A   Overcast
2:56 PM 55.4 °F - 33.8 °F 44% 29.81 in 10.0 mi SE 18.4 mph 25.3 mph N/A   Overcast
3:16 PM 55.4 °F - 33.8 °F 44% 29.80 in 10.0 mi ESE 19.6 mph 23.0 mph N/A   Overcast
3:36 PM 55.4 °F - 33.8 °F 44% 29.79 in 10.0 mi ESE 21.9 mph 27.6 mph N/A   Overcast
3:56 PM 55.4 °F - 33.8 °F 44% 29.79 in 10.0 mi SE 23.0 mph 26.5 mph N/A   Overcast
4:16 PM 53.6 °F - 33.8 °F 47% 29.79 in 10.0 mi SE 19.6 mph - N/A   Overcast
4:36 PM 53.6 °F - 33.8 °F 47% 29.79 in 10.0 mi SE 17.3 mph 21.9 mph N/A   Overcast
4:56 PM 53.6 °F - 33.8 °F 47% 29.79 in 10.0 mi ESE 19.6 mph - N/A   Overcast
5:16 PM 53.6 °F - 33.8 °F 47% 29.78 in 10.0 mi ESE 18.4 mph 23.0 mph N/A   Mostly Cloudy
5:36 PM 55.4 °F - 33.8 °F 44% 29.78 in 10.0 mi ESE 18.4 mph 24.2 mph N/A   Mostly Cloudy
5:56 PM 53.6 °F - 32.0 °F 44% 29.77 in 10.0 mi ESE 19.6 mph 23.0 mph N/A   Mostly Cloudy
6:16 PM 51.8 °F - 32.0 °F 47% 29.77 in 10.0 mi ESE 19.6 mph - N/A   Clear
6:36 PM 53.6 °F - 30.2 °F 41% 29.77 in 10.0 mi ESE 17.3 mph 23.0 mph N/A   Clear
6:56 PM 55.4 °F - 32.0 °F 41% 29.76 in 10.0 mi ESE 18.4 mph - N/A   Clear
7:16 PM 55.4 °F - 30.2 °F 38% 29.76 in 10.0 mi ESE 13.8 mph 19.6 mph N/A   Clear
7:36 PM 55.4 °F - 30.2 °F 38% 29.76 in 10.0 mi ESE 12.7 mph 18.4 mph N/A   Clear
7:56 PM 55.4 °F - 30.2 °F 38% 29.75 in 10.0 mi East 12.7 mph - N/A   Scattered Clouds
8:16 PM 55.4 °F - 32.0 °F 41% 29.75 in 10.0 mi East 9.2 mph - N/A   Mostly Cloudy
8:36 PM 53.6 °F - 32.0 °F 44% 29.75 in 10.0 mi East 8.1 mph - N/A   Mostly Cloudy
8:56 PM 53.6 °F - 33.8 °F 47% 29.76 in 10.0 mi West 8.1 mph - N/A   Mostly Cloudy
9:16 PM 48.2 °F - 35.6 °F 62% 29.76 in 10.0 mi West 8.1 mph - N/A   Overcast
9:36 PM 50.0 °F - 33.8 °F 54% 29.75 in 10.0 mi West 11.5 mph - N/A   Overcast
9:56 PM 48.2 °F - 33.8 °F 58% 29.75 in 10.0 mi West 6.9 mph - N/A   Mostly Cloudy
10:16 PM 48.2 °F - 33.8 °F 58% 29.75 in 10.0 mi West 6.9 mph - N/A   Mostly Cloudy
10:36 PM 46.4 °F 44.3 °F 35.6 °F 66% 29.76 in 10.0 mi West 4.6 mph - N/A   Overcast
10:56 PM 44.6 °F 41.4 °F 33.8 °F 66% 29.76 in 10.0 mi West 5.8 mph - N/A   Scattered Clouds
11:16 PM 42.8 °F 39.3 °F 33.8 °F 70% 29.76 in 10.0 mi West 5.8 mph - N/A   Clear
11:36 PM 42.8 °F 39.3 °F 33.8 °F 70% 29.76 in 10.0 mi West 5.8 mph - N/A   Clear
11:56 PM 42.8 °F 38.6 °F 33.8 °F 70% 29.76 in 10.0 mi WNW 6.9 mph - N/A   Clear